QPF
0.01 0.01 0.01 0.01 0.01 0.01 0.01 0.02 0.02 0.01 0.01 0.02 0.03 0.03 0.05 0.06 0.05 0.04 0.03 0.03 0.03 0.03 0.03 0.04 0.03 0.03 0.03 0.03 0.02 0.02 0.03 0.03 0.03 0.02 0.01 0.02 0.03 0.02 0.02 0.02 0.02 0.02 0.02
0.00 0.01 0.01 0.01 0.01 0.00 0.01 0.01 0.01 0.01 0.01 0.01 0.02 0.02 0.03 0.04 0.04 0.03 0.02 0.02 0.02 0.02 0.02 0.03 0.03 0.04 0.04 0.04 0.03 0.03 0.03 0.03 0.04 0.03 0.03 0.03 0.03 0.03 0.02 0.03 0.04 0.04 0.02
0.01 0.01 0.01 0.01 0.01 0.01 0.01 0.01 0.01 0.01 0.01 0.01 0.02 0.02 0.02 0.02 0.03 0.03 0.02 0.02 0.02 0.02 0.02 0.03 0.03 0.05 0.05 0.04 0.03 0.03 0.04 0.04 0.04 0.05 0.04 0.04 0.04 0.04 0.03 0.03 0.05 0.07 0.05
0.02 0.01 0.01 0.01 0.01 0.01 0.01 0.01 0.01 0.01 0.01 0.01 0.02 0.02 0.02 0.02 0.03 0.03 0.03 0.02 0.02 0.01 0.01 0.02 0.03 0.05 0.06 0.06 0.05 0.05 0.05 0.05 0.05 0.06 0.05 0.05 0.06 0.06 0.04 0.05 0.07 0.10 0.10
0.01 0.01 0.01 0.01 0.01 0.01 0.02 0.02 0.02 0.02 0.01 0.02 0.02 0.02 0.02 0.02 0.05 0.06 0.06 0.04 0.03 0.03 0.02 0.01 0.02 0.04 0.05 0.07 0.07 0.06 0.06 0.05 0.06 0.08 0.06 0.06 0.07 0.08 0.07 0.06 0.07 0.10 0.11
0.01 0.01 0.01 0.01 0.01 0.02 0.02 0.02 0.02 0.02 0.03 0.03 0.03 0.03 0.02 0.03 0.04 0.06 0.06 0.06 0.06 0.04 0.03 0.02 0.01 0.02 0.02 0.03 0.05 0.05 0.05 0.04 0.04 0.05 0.05 0.05 0.06 0.08 0.07 0.07 0.06 0.08 0.11
0.01 0.01 0.01 0.01 0.02 0.01 0.02 0.02 0.02 0.03 0.03 0.03 0.03 0.03 0.03 0.03 0.04 0.05 0.05 0.05 0.05 0.05 0.04 0.03 0.02 0.01 0.01 0.02 0.03 0.04 0.04 0.04 0.04 0.04 0.04 0.04 0.04 0.05 0.06 0.06 0.06 0.06 0.09
0.02 0.02 0.01 0.02 0.02 0.01 0.01 0.02 0.02 0.02 0.02 0.02 0.02 0.02 0.03 0.03 0.03 0.04 0.05 0.05 0.05 0.05 0.05 0.04 0.03 0.02 0.01 0.02 0.03 0.03 0.04 0.03 0.02 0.03 0.04 0.04 0.04 0.03 0.04 0.05 0.06 0.05 0.07
0.03 0.03 0.02 0.01 0.01 0.01 0.01 0.01 0.02 0.02 0.01 0.01 0.02 0.02 0.02 0.02 0.03 0.04 0.04 0.04 0.05 0.05 0.04 0.04 0.03 0.02 0.03 0.03 0.03 0.03 0.03 0.04 0.03 0.03 0.03 0.03 0.03 0.03 0.03 0.04 0.05 0.04 0.05
0.04 0.04 0.02 0.01 0.01 0.01 0.01 0.01 0.02 0.02 0.02 0.01 0.01 0.01 0.01 0.02 0.03 0.04 0.04 0.05 0.06 0.06 0.05 0.05 0.05 0.03 0.03 0.03 0.04 0.04 0.03 0.04 0.03 0.02 0.02 0.02 0.02 0.02 0.02 0.02 0.03 0.03 0.04
0.04 0.04 0.03 0.02 0.02 0.02 0.02 0.02 0.02 0.02 0.02 0.01 0.01 0.02 0.02 0.02 0.03 0.04 0.05 0.05 0.06 0.07 0.06 0.05 0.05 0.05 0.04 0.03 0.04 0.05 0.04 0.04 0.03 0.03 0.02 0.01 0.01 0.02 0.01 0.01 0.02 0.02 0.03
0.04 0.04 0.04 0.04 0.04 0.03 0.03 0.03 0.02 0.02 0.01 0.01 0.01 0.02 0.03 0.03 0.03 0.04 0.06 0.06 0.06 0.07 0.07 0.05 0.04 0.04 0.05 0.04 0.04 0.04 0.06 0.05 0.03 0.03 0.02 0.01 0.01 0.01 0.02 0.01 0.01 0.02 0.02
0.04 0.05 0.05 0.06 0.06 0.05 0.04 0.04 0.03 0.02 0.02 0.02 0.02 0.02 0.03 0.04 0.05 0.06 0.07 0.07 0.07 0.07 0.07 0.06 0.05 0.04 0.04 0.05 0.05 0.04 0.04 0.05 0.04 0.03 0.02 0.02 0.01 0.02 0.02 0.02 0.02 0.02 0.02
0.03 0.04 0.05 0.05 0.08 0.08 0.05 0.04 0.03 0.02 0.02 0.02 0.02 0.02 0.03 0.03 0.03 0.04 0.05 0.06 0.06 0.07 0.07 0.06 0.06 0.05 0.05 0.05 0.05 0.04 0.04 0.05 0.05 0.03 0.03 0.02 0.02 0.02 0.02 0.02 0.02 0.02 0.02
0.02 0.03 0.04 0.05 0.06 0.07 0.06 0.05 0.04 0.03 0.03 0.03 0.02 0.02 0.02 0.03 0.04 0.04 0.04 0.05 0.06 0.06 0.07 0.05 0.05 0.07 0.07 0.05 0.05 0.05 0.05 0.05 0.04 0.04 0.03 0.03 0.02 0.02 0.02 0.02 0.02 0.02 0.02
0.03 0.03 0.04 0.05 0.06 0.06 0.05 0.05 0.04 0.04 0.03 0.03 0.03 0.04 0.03 0.03 0.03 0.03 0.04 0.04 0.05 0.07 0.07 0.06 0.05 0.06 0.07 0.06 0.07 0.07 0.07 0.07 0.06 0.04 0.03 0.03 0.03 0.02 0.02 0.02 0.02 0.02 0.02
0.03 0.03 0.04 0.04 0.06 0.07 0.07 0.05 0.04 0.04 0.04 0.04 0.04 0.05 0.04 0.04 0.03 0.03 0.03 0.03 0.04 0.05 0.06 0.06 0.05 0.06 0.07 0.07 0.06 0.07 0.07 0.07 0.07 0.06 0.04 0.04 0.04 0.03 0.03 0.03 0.02 0.02 0.02
0.04 0.04 0.03 0.04 0.04 0.05 0.06 0.06 0.05 0.04 0.04 0.05 0.05 0.05 0.05 0.04 0.04 0.03 0.03 0.03 0.04 0.05 0.05 0.04 0.05 0.04 0.04 0.05 0.05 0.06 0.07 0.07 0.08 0.07 0.05 0.04 0.05 0.05 0.04 0.04 0.04 0.03 0.03
0.03 0.04 0.03 0.02 0.03 0.03 0.04 0.04 0.04 0.04 0.04 0.05 0.05 0.04 0.04 0.03 0.03 0.03 0.03 0.03 0.03 0.03 0.04 0.05 0.05 0.04 0.03 0.03 0.04 0.04 0.06 0.07 0.08 0.09 0.07 0.06 0.04 0.04 0.05 0.04 0.04 0.04 0.03
0.02 0.03 0.03 0.02 0.02 0.02 0.02 0.03 0.04 0.04 0.04 0.03 0.04 0.04 0.03 0.02 0.01 0.01 0.01 0.02 0.02 0.02 0.03 0.03 0.03 0.03 0.03 0.04 0.03 0.03 0.03 0.04 0.05 0.07 0.06 0.05 0.04 0.03 0.04 0.04 0.05 0.04 0.03
0.01 0.02 0.02 0.02 0.01 0.01 0.01 0.02 0.02 0.03 0.04 0.04 0.03 0.03 0.02 0.02 0.01 0.01 0.01 0.01 0.02 0.02 0.02 0.02 0.02 0.02 0.02 0.03 0.03 0.02 0.02 0.03 0.03 0.04 0.04 0.04 0.03 0.03 0.03 0.03 0.04 0.04 0.04
0.01 0.02 0.02 0.01 0.01 0.01 0.01 0.01 0.02 0.02 0.03 0.03 0.03 0.02 0.02 0.01 0.01 0.01 0.01 0.01 0.01 0.02 0.02 0.02 0.02 0.02 0.02 0.03 0.03 0.03 0.03 0.03 0.03 0.04 0.04 0.04 0.03 0.03 0.03 0.03 0.03 0.03 0.04
0.01 0.01 0.02 0.02 0.01 0.01 0.01 0.02 0.02 0.02 0.02 0.02 0.02 0.02 0.01 0.01 0.01 0.01 0.01 0.01 0.01 0.01 0.01 0.02 0.02 0.03 0.03 0.03 0.04 0.04 0.04 0.04 0.04 0.04 0.04 0.05 0.04 0.03 0.03 0.03 0.03 0.03 0.03
0.00 0.01 0.02 0.02 0.02 0.01 0.01 0.02 0.02 0.02 0.02 0.02 0.02 0.01 0.01 0.01 0.01 0.01 0.01 0.01 0.01 0.01 0.01 0.01 0.01 0.01 0.01 0.02 0.02 0.02 0.03 0.03 0.03 0.03 0.04 0.05 0.04 0.03 0.04 0.04 0.03 0.03 0.03
0.00 0.00 0.01 0.02 0.03 0.03 0.02 0.02 0.02 0.02 0.02 0.02 0.01 0.01 0.01 0.00 0.00 0.00 0.00 0.00 0.00 0.00 0.00 0.00 0.00 0.01 0.01 0.01 0.01 0.02 0.02 0.02 0.03 0.03 0.04 0.04 0.04 0.04 0.04 0.04 0.03 0.02 0.02
0.00 0.00 0.01 0.01 0.02 0.02 0.03 0.02 0.02 0.02 0.02 0.02 0.01 0.01 0.01 0.00 0.00 0.00 0.00 0.01 0.01 0.00 0.00 0.00 0.00 0.00 0.00 0.01 0.01 0.02 0.02 0.02 0.02 0.03 0.04 0.04 0.04 0.04 0.04 0.04 0.03 0.02 0.02
MSLP
1026.11 1026.45 1026.79 1027.09 1027.35 1027.55 1027.70 1027.81 1027.89 1027.93 1027.94 1027.92 1027.87 1027.77 1027.63 1027.46 1027.28 1027.10 1026.94 1026.82 1026.74 1026.70 1026.66 1026.60 1026.47 1026.26 1025.93 1025.48 1024.94 1024.34 1023.71 1023.10 1022.53 1022.04 1021.61 1021.23 1020.86 1020.48 1020.04 1019.53 1018.94 1018.27 1017.55
1026.01 1026.40 1026.77 1027.11 1027.40 1027.64 1027.84 1027.99 1028.11 1028.19 1028.25 1028.27 1028.26 1028.19 1028.09 1027.95 1027.78 1027.62 1027.48 1027.37 1027.30 1027.25 1027.21 1027.15 1027.04 1026.84 1026.54 1026.14 1025.65 1025.10 1024.53 1023.96 1023.43 1022.95 1022.51 1022.10 1021.69 1021.26 1020.77 1020.23 1019.63 1018.97 1018.29
1025.80 1026.24 1026.66 1027.03 1027.36 1027.63 1027.87 1028.07 1028.23 1028.37 1028.49 1028.57 1028.60 1028.59 1028.54 1028.44 1028.32 1028.19 1028.07 1027.97 1027.90 1027.85 1027.81 1027.75 1027.64 1027.47 1027.21 1026.87 1026.45 1025.98 1025.48 1024.98 1024.49 1024.03 1023.58 1023.14 1022.67 1022.18 1021.63 1021.04 1020.41 1019.75 1019.09
1025.45 1025.96 1026.43 1026.85 1027.21 1027.53 1027.81 1028.06 1028.29 1028.49 1028.67 1028.82 1028.93 1028.98 1028.99 1028.95 1028.87 1028.78 1028.68 1028.59 1028.53 1028.48 1028.43 1028.37 1028.28 1028.13 1027.92 1027.65 1027.31 1026.93 1026.51 1026.08 1025.64 1025.20 1024.74 1024.26 1023.75 1023.18 1022.58 1021.93 1021.26 1020.59 1019.94
1025.00 1025.58 1026.11 1026.58 1026.99 1027.36 1027.69 1028.00 1028.29 1028.56 1028.82 1029.04 1029.22 1029.35 1029.42 1029.44 1029.41 1029.36 1029.28 1029.21 1029.15 1029.10 1029.05 1029.00 1028.92 1028.80 1028.64 1028.43 1028.17 1027.86 1027.53 1027.16 1026.77 1026.35 1025.89 1025.38 1024.82 1024.20 1023.54 1022.85 1022.15 1021.47 1020.84
1024.45 1025.12 1025.71 1026.24 1026.71 1027.13 1027.52 1027.89 1028.25 1028.60 1028.93 1029.23 1029.48 1029.68 1029.81 1029.88 1029.90 1029.88 1029.84 1029.78 1029.73 1029.68 1029.63 1029.58 1029.52 1029.43 1029.31 1029.15 1028.96 1028.72 1028.45 1028.14 1027.79 1027.39 1026.93 1026.41 1025.82 1025.17 1024.47 1023.76 1023.05 1022.37 1021.75
1023.85 1024.60 1025.27 1025.86 1026.39 1026.87 1027.32 1027.76 1028.19 1028.61 1029.00 1029.37 1029.68 1029.94 1030.12 1030.25 1030.31 1030.32 1030.30 1030.27 1030.23 1030.19 1030.15 1030.11 1030.06 1030.00 1029.91 1029.79 1029.64 1029.45 1029.22 1028.95 1028.64 1028.25 1027.81 1027.29 1026.70 1026.04 1025.35 1024.64 1023.93 1023.27 1022.67
1023.23 1024.06 1024.79 1025.45 1026.04 1026.59 1027.11 1027.61 1028.10 1028.58 1029.04 1029.46 1029.82 1030.12 1030.35 1030.51 1030.60 1030.65 1030.66 1030.65 1030.63 1030.61 1030.59 1030.57 1030.54 1030.50 1030.43 1030.33 1030.20 1030.04 1029.84 1029.59 1029.29 1028.93 1028.50 1028.00 1027.43 1026.81 1026.15 1025.47 1024.80 1024.17 1023.60
1022.62 1023.51 1024.31 1025.03 1025.68 1026.29 1026.87 1027.44 1027.99 1028.52 1029.02 1029.48 1029.89 1030.22 1030.48 1030.67 1030.80 1030.87 1030.92 1030.94 1030.95 1030.96 1030.97 1030.98 1030.97 1030.94 1030.89 1030.80 1030.67 1030.51 1030.31 1030.07 1029.77 1029.43 1029.03 1028.56 1028.04 1027.47 1026.87 1026.25 1025.64 1025.05 1024.52
1022.04 1022.98 1023.83 1024.60 1025.31 1025.98 1026.62 1027.24 1027.84 1028.42 1028.96 1029.46 1029.89 1030.25 1030.53 1030.75 1030.90 1031.01 1031.10 1031.16 1031.22 1031.27 1031.32 1031.35 1031.36 1031.35 1031.30 1031.20 1031.07 1030.89 1030.68 1030.42 1030.13 1029.80 1029.42 1029.00 1028.54 1028.04 1027.50 1026.96 1026.41 1025.88 1025.38
1021.47 1022.44 1023.33 1024.15 1024.91 1025.64 1026.33 1027.01 1027.66 1028.28 1028.86 1029.38 1029.83 1030.21 1030.52 1030.76 1030.95 1031.10 1031.22 1031.33 1031.44 1031.54 1031.63 1031.69 1031.73 1031.72 1031.66 1031.56 1031.40 1031.20 1030.96 1030.69 1030.39 1030.06 1029.71 1029.34 1028.93 1028.50 1028.05 1027.57 1027.09 1026.61 1026.13
1020.91 1021.90 1022.82 1023.68 1024.49 1025.26 1026.01 1026.73 1027.43 1028.09 1028.70 1029.25 1029.72 1030.12 1030.45 1030.72 1030.94 1031.13 1031.30 1031.45 1031.61 1031.75 1031.88 1031.97 1032.02 1032.02 1031.96 1031.83 1031.65 1031.42 1031.15 1030.86 1030.55 1030.23 1029.90 1029.57 1029.22 1028.85 1028.47 1028.06 1027.63 1027.19 1026.74
1020.33 1021.33 1022.27 1023.16 1024.01 1024.83 1025.63 1026.40 1027.14 1027.84 1028.48 1029.06 1029.56 1029.98 1030.33 1030.63 1030.88 1031.10 1031.30 1031.50 1031.69 1031.87 1032.03 1032.14 1032.21 1032.21 1032.13 1031.99 1031.78 1031.52 1031.23 1030.92 1030.60 1030.29 1029.99 1029.69 1029.38 1029.07 1028.74 1028.38 1028.00 1027.59 1027.15
1019.72 1020.72 1021.68 1022.60 1023.49 1024.35 1025.19 1026.01 1026.79 1027.52 1028.19 1028.80 1029.32 1029.76 1030.14 1030.46 1030.73 1030.98 1031.21 1031.43 1031.64 1031.84 1032.02 1032.14 1032.21 1032.21 1032.13 1031.97 1031.75 1031.47 1031.17 1030.85 1030.54 1030.23 1029.95 1029.68 1029.41 1029.14 1028.85 1028.54 1028.18 1027.79 1027.36
1019.06 1020.06 1021.03 1021.97 1022.90 1023.79 1024.68 1025.53 1026.34 1027.11 1027.81 1028.44 1028.98 1029.45 1029.84 1030.17 1030.46 1030.72 1030.96 1031.20 1031.42 1031.62 1031.80 1031.92 1031.99 1031.98 1031.90 1031.74 1031.52 1031.25 1030.95 1030.64 1030.34 1030.06 1029.80 1029.56 1029.32 1029.08 1028.82 1028.53 1028.20 1027.82 1027.40
1018.34 1019.34 1020.32 1021.28 1022.23 1023.16 1024.07 1024.95 1025.79 1026.59 1027.31 1027.96 1028.53 1029.01 1029.41 1029.76 1030.05 1030.31 1030.55 1030.78 1030.99 1031.18 1031.35 1031.46 1031.53 1031.52 1031.45 1031.30 1031.10 1030.85 1030.58 1030.30 1030.04 1029.79 1029.56 1029.35 1029.14 1028.92 1028.69 1028.41 1028.09 1027.73 1027.32
1017.56 1018.56 1019.55 1020.52 1021.48 1022.43 1023.36 1024.27 1025.13 1025.95 1026.69 1027.36 1027.94 1028.43 1028.85 1029.20 1029.49 1029.75 1029.97 1030.18 1030.38 1030.55 1030.70 1030.81 1030.87 1030.88 1030.82 1030.71 1030.55 1030.35 1030.13 1029.90 1029.68 1029.48 1029.29 1029.11 1028.93 1028.73 1028.51 1028.25 1027.94 1027.59 1027.19
1016.73 1017.73 1018.72 1019.70 1020.67 1021.63 1022.57 1023.49 1024.36 1025.19 1025.95 1026.64 1027.23 1027.74 1028.17 1028.52 1028.81 1029.06 1029.27 1029.46 1029.64 1029.80 1029.93 1030.04 1030.11 1030.14 1030.12 1030.06 1029.95 1029.82 1029.67 1029.51 1029.35 1029.19 1029.04 1028.90 1028.74 1028.56 1028.35 1028.09 1027.80 1027.45 1027.07
1015.85 1016.85 1017.84 1018.83 1019.80 1020.76 1021.71 1022.63 1023.51 1024.35 1025.13 1025.83 1026.44 1026.97 1027.41 1027.77 1028.07 1028.31 1028.52 1028.70 1028.86 1029.01 1029.14 1029.25 1029.34 1029.41 1029.44 1029.43 1029.40 1029.34 1029.27 1029.18 1029.08 1028.98 1028.87 1028.75 1028.60 1028.44 1028.23 1027.98 1027.68 1027.34 1026.97
1014.95 1015.95 1016.94 1017.92 1018.89 1019.85 1020.79 1021.72 1022.61 1023.46 1024.25 1024.97 1025.61 1026.16 1026.62 1027.00 1027.31 1027.57 1027.78 1027.96 1028.12 1028.27 1028.41 1028.54 1028.66 1028.77 1028.86 1028.92 1028.96 1028.97 1028.97 1028.94 1028.90 1028.84 1028.76 1028.66 1028.52 1028.35 1028.14 1027.88 1027.58 1027.24 1026.87
1014.05 1015.04 1016.03 1017.01 1017.97 1018.93 1019.88 1020.80 1021.70 1022.56 1023.37 1024.12 1024.78 1025.36 1025.86 1026.27 1026.61 1026.89 1027.11 1027.31 1027.48 1027.65 1027.81 1027.97 1028.12 1028.27 1028.41 1028.53 1028.63 1028.71 1028.77 1028.79 1028.79 1028.76 1028.69 1028.59 1028.45 1028.26 1028.04 1027.76 1027.45 1027.10 1026.72
1013.17 1014.16 1015.15 1016.13 1017.09 1018.04 1018.99 1019.92 1020.83 1021.70 1022.53 1023.30 1024.00 1024.62 1025.15 1025.60 1025.98 1026.29 1026.55 1026.77 1026.96 1027.15 1027.34 1027.52 1027.71 1027.90 1028.08 1028.24 1028.39 1028.52 1028.61 1028.66 1028.68 1028.65 1028.58 1028.46 1028.30 1028.09 1027.84 1027.55 1027.22 1026.85 1026.47
1012.34 1013.35 1014.34 1015.31 1016.27 1017.22 1018.16 1019.10 1020.01 1020.90 1021.75 1022.55 1023.28 1023.94 1024.52 1025.01 1025.43 1025.77 1026.06 1026.31 1026.54 1026.75 1026.95 1027.16 1027.37 1027.59 1027.79 1027.99 1028.16 1028.30 1028.40 1028.46 1028.47 1028.43 1028.34 1028.19 1028.00 1027.77 1027.49 1027.17 1026.82 1026.44 1026.04
1011.61 1012.62 1013.61 1014.58 1015.54 1016.49 1017.43 1018.36 1019.28 1020.18 1021.05 1021.87 1022.63 1023.32 1023.93 1024.46 1024.91 1025.30 1025.62 1025.90 1026.14 1026.37 1026.59 1026.81 1027.04 1027.26 1027.47 1027.66 1027.83 1027.97 1028.06 1028.10 1028.09 1028.02 1027.90 1027.72 1027.50 1027.23 1026.93 1026.59 1026.22 1025.84 1025.43
1010.97 1011.99 1012.98 1013.95 1014.90 1015.84 1016.78 1017.70 1018.62 1019.52 1020.40 1021.23 1022.01 1022.72 1023.36 1023.92 1024.40 1024.81 1025.16 1025.46 1025.72 1025.96 1026.19 1026.41 1026.63 1026.84 1027.04 1027.22 1027.37 1027.48 1027.54 1027.55 1027.51 1027.41 1027.25 1027.04 1026.79 1026.50 1026.17 1025.82 1025.45 1025.06 1024.66
1010.45 1011.46 1012.45 1013.41 1014.35 1015.28 1016.20 1017.11 1018.02 1018.91 1019.78 1020.62 1021.40 1022.13 1022.79 1023.36 1023.87 1024.29 1024.66 1024.96 1025.23 1025.47 1025.69 1025.90 1026.11 1026.30 1026.47 1026.62 1026.74 1026.82 1026.84 1026.82 1026.74 1026.60 1026.41 1026.18 1025.91 1025.60 1025.27 1024.92 1024.55 1024.17 1023.79
Thickness
5649 5647 5645 5643 5642 5641 5640 5639 5638 5638 5638 5638 5638 5638 5637 5638 5637 5637 5637 5636 5637 5637 5637 5637 5636 5636 5635 5635 5635 5635 5635 5635 5634 5635 5635 5634 5633 5633 5633 5633 5634 5635 5635
5641 5639 5638 5636 5634 5633 5632 5630 5630 5630 5630 5630 5629 5629 5628 5628 5628 5627 5627 5627 5627 5628 5628 5628 5628 5627 5627 5627 5626 5626 5626 5627 5626 5625 5626 5626 5625 5625 5626 5626 5627 5628 5629
5632 5632 5630 5629 5627 5625 5624 5622 5621 5621 5621 5620 5619 5619 5618 5618 5618 5618 5618 5618 5618 5619 5619 5620 5620 5620 5619 5618 5618 5618 5618 5618 5618 5618 5618 5617 5617 5617 5618 5618 5619 5620 5621
5624 5624 5622 5620 5619 5617 5615 5613 5612 5611 5611 5610 5609 5609 5609 5609 5608 5608 5609 5609 5609 5608 5609 5609 5610 5611 5610 5610 5609 5610 5610 5609 5609 5609 5609 5609 5608 5608 5609 5610 5611 5612 5613
5617 5616 5614 5611 5609 5607 5605 5603 5602 5601 5600 5600 5599 5599 5598 5598 5598 5598 5598 5599 5599 5599 5599 5600 5600 5599 5598 5599 5600 5600 5600 5600 5601 5600 5600 5601 5600 5599 5600 5601 5602 5603 5605
5609 5608 5605 5603 5601 5598 5596 5594 5592 5591 5590 5589 5589 5588 5588 5587 5585 5585 5586 5588 5589 5590 5590 5591 5591 5590 5589 5588 5588 5588 5588 5590 5592 5592 5592 5593 5594 5593 5592 5592 5593 5595 5596
5602 5600 5597 5594 5591 5589 5586 5584 5582 5581 5579 5578 5578 5578 5577 5576 5574 5574 5575 5578 5579 5580 5581 5581 5582 5582 5581 5583 5581 5580 5580 5580 5580 5583 5584 5585 5585 5585 5585 5584 5585 5587 5588
5593 5591 5589 5585 5583 5580 5577 5575 5572 5571 5569 5567 5567 5567 5567 5566 5565 5564 5565 5568 5569 5570 5571 5572 5572 5573 5573 5574 5575 5575 5575 5575 5574 5574 5576 5577 5576 5576 5576 5576 5577 5578 5579
5585 5582 5580 5577 5574 5571 5568 5565 5563 5560 5559 5557 5556 5556 5556 5556 5554 5554 5554 5558 5559 5561 5561 5562 5562 5563 5563 5563 5566 5568 5568 5567 5565 5564 5564 5564 5564 5564 5565 5566 5567 5568 5570
5575 5574 5572 5569 5566 5562 5559 5557 5554 5551 5549 5548 5547 5546 5546 5546 5545 5544 5544 5548 5549 5551 5552 5553 5551 5552 5553 5553 5557 5559 5560 5560 5559 5558 5556 5556 5556 5556 5555 5557 5558 5558 5560
5565 5564 5562 5559 5557 5554 5550 5547 5544 5542 5540 5539 5539 5538 5537 5537 5536 5534 5534 5537 5539 5541 5542 5543 5543 5542 5543 5544 5546 5549 5550 5550 5551 5551 5550 5550 5550 5550 5549 5549 5550 5550 5551
5556 5554 5551 5549 5547 5544 5541 5538 5536 5534 5532 5531 5531 5530 5529 5528 5527 5526 5525 5526 5528 5530 5531 5532 5533 5532 5533 5534 5536 5537 5538 5539 5542 5543 5543 5543 5543 5542 5542 5542 5541 5542 5543
5546 5544 5541 5539 5537 5534 5532 5530 5527 5526 5524 5523 5522 5521 5520 5520 5520 5518 5517 5517 5517 5519 5521 5521 5522 5522 5524 5526 5526 5527 5529 5531 5533 5534 5534 5535 5535 5534 5533 5533 5533 5533 5534
5537 5535 5532 5530 5527 5525 5523 5521 5519 5517 5516 5514 5514 5513 5512 5511 5511 5511 5510 5509 5508 5510 5511 5512 5512 5513 5514 5516 5517 5518 5520 5521 5523 5524 5524 5524 5524 5524 5524 5524 5525 5525 5526
5529 5526 5523 5520 5518 5516 5514 5511 5509 5508 5506 5505 5505 5505 5504 5503 5501 5500 5500 5500 5501 5501 5502 5503 5505 5505 5507 5507 5509 5510 5510 5511 5512 5513 5513 5514 5515 5515 5515 5515 5516 5517 5518
5520 5518 5514 5512 5509 5506 5504 5502 5498 5497 5495 5494 5494 5494 5494 5493 5492 5491 5490 5490 5490 5490 5492 5493 5494 5494 5496 5497 5498 5499 5500 5501 5501 5502 5503 5504 5505 5506 5507 5506 5507 5508 5510
5511 5509 5507 5504 5501 5498 5496 5495 5492 5489 5487 5485 5484 5484 5483 5483 5482 5482 5482 5482 5482 5481 5483 5484 5484 5484 5485 5486 5487 5489 5490 5490 5491 5492 5493 5494 5495 5497 5497 5498 5499 5499 5500
5503 5500 5498 5496 5493 5491 5488 5486 5484 5483 5482 5480 5477 5476 5475 5474 5474 5473 5473 5474 5474 5474 5474 5475 5475 5475 5475 5476 5477 5478 5480 5481 5481 5483 5484 5485 5486 5487 5488 5490 5491 5491 5492
5495 5493 5490 5488 5485 5483 5480 5478 5476 5474 5474 5472 5471 5469 5467 5466 5466 5465 5465 5466 5466 5466 5465 5465 5465 5466 5466 5467 5468 5469 5470 5470 5472 5473 5475 5476 5477 5478 5479 5481 5482 5481 5482
5486 5482 5480 5479 5477 5475 5472 5470 5468 5467 5465 5464 5462 5461 5460 5459 5459 5458 5456 5457 5457 5457 5456 5455 5455 5456 5456 5457 5458 5459 5460 5461 5462 5464 5465 5467 5468 5469 5470 5471 5472 5473 5474
5479 5475 5471 5470 5469 5467 5465 5463 5461 5459 5457 5455 5453 5451 5449 5450 5450 5449 5448 5447 5447 5447 5446 5446 5446 5446 5446 5447 5448 5449 5450 5451 5452 5454 5456 5457 5458 5459 5460 5461 5462 5464 5465
5470 5468 5465 5463 5461 5458 5457 5454 5452 5450 5449 5446 5444 5442 5439 5440 5440 5439 5438 5438 5437 5437 5437 5437 5437 5437 5437 5437 5438 5439 5441 5442 5443 5445 5447 5448 5450 5450 5451 5453 5454 5455 5457
5461 5459 5457 5455 5452 5449 5448 5446 5444 5442 5440 5438 5436 5434 5432 5431 5431 5430 5429 5428 5428 5427 5427 5427 5428 5428 5428 5429 5429 5430 5431 5433 5434 5436 5438 5440 5441 5443 5444 5445 5446 5448 5449
5453 5451 5449 5447 5444 5442 5440 5439 5437 5434 5432 5430 5428 5426 5424 5422 5421 5420 5419 5418 5418 5418 5418 5419 5419 5420 5420 5420 5421 5422 5423 5424 5425 5427 5429 5431 5433 5435 5435 5436 5438 5439 5441
5444 5442 5440 5438 5436 5434 5432 5430 5429 5426 5424 5422 5420 5418 5416 5414 5413 5411 5411 5410 5410 5410 5410 5410 5411 5411 5412 5412 5413 5414 5414 5415 5417 5418 5421 5423 5425 5426 5427 5428 5430 5431 5432
5435 5433 5431 5429 5427 5425 5423 5422 5420 5418 5416 5414 5411 5410 5408 5406 5404 5403 5402 5401 5401 5401 5401 5402 5402 5403 5404 5404 5405 5405 5406 5408 5409 5410 5412 5414 5416 5417 5418 5420 5422 5423 5424